[[{"header":{"parameterUnit":"m.s-1","parameterCategory":1,"la1":30.2991,"la2":30.254,"lo1":-89.0895,"lo2":-89.0444,"dy":0.0017,"dx":0.0017,"nx":28,"ny":28,"refTime":"2025-07-12T09:00:00:Z","depth":0,"parameterNumber":2,"parameterNumberName":"U-component_of_WINDS"},"data":[0,0,0,0,0,0,0,0,0,0,0,0,0,0,0,0,0,0,0,0,0,0,0,0,0,0,0,0,0,0,0,0,0,0,0,0,0,0,0,0,0,0,0,0,0,0,0,0,0,0,0,0,0,0,0,0,0,0,0.345,0.3451,0,0.3515,0.3516,0.3517,0.3566,0.3566,0.3567,0.3567,0.3635,0.3637,0.3638,0,0,0,0,0,0,0,0,0,0,0,0,0,0.3368,0.337,0.345,0.3451,0.3451,0.3515,0.3516,0.3517,0.3566,0.3566,0.3567,0.3567,0.3635,0.3636,0.3638,0,0,0,0,0,0,0,0,0,0,0,0,0,0.3416,0.337,0.345,0.3483,0.3487,0.3515,0.3516,0.3517,0.3566,0.3566,0.3567,0.3568,0.3634,0.3636,0.3638,0.3638,0,0,0.3645,0.3646,0,0,0,0,0,0,0,0,0.3413,0.3419,0.3478,0.3481,0.3485,0.3533,0.3512,0.3558,0.3566,0.3536,0.3567,0.3568,0.3601,0.3606,0.3617,0.3641,0.3644,0.3645,0.3646,0.3647,0.3648,0,0,0,0,0,0,0,0.341,0.3416,0.3476,0.3478,0.3483,0.3496,0.3503,0.3521,0.3564,0.3539,0.3542,0.3549,0.3603,0.3614,0.3619,0.3645,0.3645,0.3647,0.3648,0.3649,0.3674,0.3674,0,0,0,0,0,0,0.3401,0.3413,0.3474,0.3478,0.345,0.3497,0.3505,0.3517,0.3564,0.3572,0.3549,0.3551,0.361,0.3616,0.3621,0.3624,0.3647,0.3649,0.365,0.3675,0.3674,0.3673,0,0,0,0,0,0,0.3399,0.3406,0.3471,0.3446,0.3456,0.3497,0.3511,0.3518,0.353,0.3571,0.3579,0.3552,0.3611,0.3618,0.3634,0.3627,0.365,0.3652,0.3675,0.3675,0.3674,0.3631,0,0,0,0,0,0,0.3396,0.3405,0.3405,0.3446,0.3457,0.3482,0.351,0.3519,0.3533,0.3537,0.3577,0.3584,0.3612,0.363,0.3636,0.3631,0.3654,0.3676,0.3675,0.3674,0.3633,0.3628,0.3625,0,0,0,0,0,0.3393,0.339,0.3405,0.3412,0.3458,0.3481,0.3488,0.352,0.3532,0.3533,0.356,0.3583,0.3627,0.3631,0.3638,0.3634,0.3677,0.3675,0.3674,0.3635,0.3629,0.3625,0,0,0,0,0,0,0.3347,0.3396,0.3413,0.3422,0.3447,0.349,0.3491,0.3513,0.3535,0.3538,0.3577,0.3586,0.3597,0.3617,0.3621,0.3636,0.3655,0.3655,0.3623,0.3618,0.3614,0.3609,0.3655,0,0,0,0,0,0.3338,0.3353,0.3395,0.34,0.3411,0.3449,0.3461,0.3483,0.3511,0.3521,0.355,0.3576,0.3596,0.3608,0.3629,0.3636,0.3646,0.3636,0.3632,0.3629,0.3628,0.3634,0.3631,0.3669,0.3669,0.3669,0,0,0.3319,0.3348,0.3355,0.3391,0.3413,0.3428,0.3458,0.3472,0.3484,0.3524,0.354,0.3562,0.3594,0.3605,0.3612,0.3622,0.362,0.3627,0.3624,0.3625,0.3632,0.3629,0.3625,0.3668,0.3668,0.3668,0,0,0.3293,0.3316,0.3323,0.3344,0.3377,0.3402,0.3404,0.3443,0.3459,0.3476,0.3507,0.3521,0.3555,0.3576,0.3592,0.3574,0.3597,0.358,0.3559,0.3564,0.3561,0.3558,0.3553,0.355,0.3579,0.3579,0.3579,0,0.3266,0.3289,0.3323,0.3336,0.3352,0.3389,0.3396,0.3415,0.3453,0.3463,0.3474,0.3517,0.3541,0.3559,0.3555,0.3566,0.3569,0.3575,0.3559,0.3556,0.3555,0.3549,0.3547,0.3577,0.3577,0.3578,0.3578,0,0.3254,0.327,0.3272,0.3307,0.3323,0.3333,0.3369,0.3381,0.3402,0.3426,0.3444,0.3474,0.3502,0.3507,0.3528,0.3528,0.3534,0.3551,0.3571,0.3548,0.3544,0.3542,0.3574,0.3575,0.3575,0.3576,0,0,0.32,0.3255,0.3255,0.3272,0.3311,0.3324,0.3336,0.3363,0.3373,0.3398,0.3409,0.3437,0.3454,0.3471,0.3495,0.35,0.3485,0.3517,0.3518,0.351,0.3487,0.3473,0.347,0.35,0.35,0.3499,0.3484,0,0.318,0.3203,0.3235,0.3247,0.3263,0.3299,0.3309,0.3335,0.3358,0.3375,0.3401,0.342,0.344,0.3451,0.3457,0.3485,0.348,0.3487,0.3511,0.3512,0.3502,0.3468,0.3454,0.3437,0.3483,0.3482,0.3482,0,0.3159,0.3183,0.3197,0.3235,0.3243,0.3252,0.328,0.3295,0.3325,0.3342,0.3361,0.3388,0.3403,0.342,0.3442,0.3446,0.3458,0.3473,0.3473,0.3477,0.3495,0.347,0.3433,0.343,0.348,0.348,0.348,0,0.3118,0.3153,0.3167,0.318,0.3225,0.3231,0.325,0.3281,0.3295,0.332,0.3329,0.3355,0.3369,0.3389,0.3421,0.3431,0.344,0.346,0.3454,0.3454,0.3454,0.3454,0.3418,0.3462,0.3462,0.3462,0.3462,0,0.3093,0.31,0.3149,0.3157,0.3166,0.3203,0.3212,0.3234,0.3262,0.3275,0.3308,0.332,0.3362,0.338,0.3405,0.342,0.3426,0.344,0.3447,0.3437,0.3435,0.3445,0.3447,0.3462,0.3462,0.3462,0.3462,0,0.3048,0.3081,0.3098,0.314,0.3151,0.3156,0.3192,0.3201,0.3227,0.3244,0.325,0.329,0.3312,0.3346,0.3379,0.3396,0.3406,0.3417,0.3396,0.34,0.3392,0.3392,0.3361,0.3359,0.3404,0.3404,0.3403,0,0.3029,0.3036,0.3078,0.309,0.3108,0.3126,0.3141,0.3177,0.3192,0.3227,0.3232,0.3257,0.3278,0.3312,0.3344,0.337,0.3382,0.3369,0.3386,0.3376,0.3381,0.3381,0.3382,0.3365,0.3364,0.3364,0.3363,0,0.2992,0.3009,0.3029,0.3055,0.3071,0.3094,0.3117,0.3125,0.3167,0.3182,0.3204,0.3221,0.3254,0.3279,0.3308,0.3329,0.3353,0.3358,0.3358,0.3348,0.3335,0.3342,0.3385,0.3359,0.3359,0.3359,0.336,0.336,0.296,0.2968,0.2999,0.3021,0.3043,0.3064,0.3075,0.3102,0.3122,0.3152,0.3172,0.3194,0.3225,0.3268,0.3287,0.3305,0.3315,0.3315,0.3315,0.3315,0.3311,0.3333,0.3311,0.3311,0.3311,0.3311,0.3311,0,0.2925,0.2947,0.2967,0.2999,0.3016,0.3037,0.3065,0.3078,0.3097,0.3123,0.3144,0.3171,0.3195,0.3229,0.3256,0.3263,0.3275,0.3269,0.3269,0.3273,0.33,0.3298,0.3259,0.3259,0.3259,0.3259,0.3259,0.3259,0.2909,0.2923,0.2943,0.2969,0.2991,0.3012,0.3026,0.3047,0.3068,0.3097,0.3117,0.3139,0.3169,0.3198,0.3221,0.3231,0.3239,0.3229,0.3242,0.3267,0.3271,0.3276,0.3274,0.3231,0.3231,0.3214,0.3214,0.3214]},{"header":{"parameterUnit":"m.s-1","parameterCategory":1,"la1":30.2991,"la2":30.254,"lo1":-89.0895,"lo2":-89.0444,"dy":0.0017,"dx":0.0017,"nx":28,"ny":28,"refTime":"2025-07-12T09:00:00:Z","depth":0,"parameterNumber":3,"parameterNumberName":"V-component_of_WINDS"},"data":[0,0,0,0,0,0,0,0,0,0,0,0,0,0,0,0,0,0,0,0,0,0,0,0,0,0,0,0,0,0,0,0,0,0,0,0,0,0,0,0,0,0,0,0,0,0,0,0,0,0,0,0,0,0,0,0,0,0,0.5297,0.5297,0,0.5246,0.5245,0.5245,0.5245,0.5246,0.5247,0.5247,0.5196,0.5194,0.5192,0,0,0,0,0,0,0,0,0,0,0,0,0,0.5398,0.5396,0.5297,0.5297,0.5296,0.5246,0.5245,0.5245,0.5245,0.5246,0.5247,0.5248,0.5197,0.5194,0.5192,0,0,0,0,0,0,0,0,0,0,0,0,0,0.5351,0.5395,0.5297,0.529,0.5289,0.5246,0.5245,0.5244,0.5245,0.5246,0.5247,0.5248,0.5197,0.5194,0.5191,0.5152,0,0,0.5182,0.5181,0,0,0,0,0,0,0,0,0.5354,0.5347,0.5292,0.5291,0.5289,0.5253,0.5262,0.5214,0.5245,0.5262,0.5247,0.5249,0.5214,0.521,0.5198,0.515,0.5148,0.5182,0.518,0.5179,0.5178,0,0,0,0,0,0,0,0.5357,0.5349,0.5277,0.5291,0.529,0.529,0.5285,0.5253,0.5233,0.526,0.526,0.5254,0.5214,0.5201,0.5197,0.5147,0.5182,0.5179,0.5178,0.5176,0.5066,0.5065,0,0,0,0,0,0,0.5361,0.5352,0.5279,0.5276,0.5325,0.5288,0.5281,0.5264,0.5233,0.523,0.5253,0.5254,0.5206,0.52,0.5195,0.5148,0.5179,0.5176,0.5174,0.5067,0.5065,0.5064,0,0,0,0,0,0,0.5363,0.5355,0.5281,0.5314,0.5304,0.5285,0.5265,0.5262,0.5249,0.5228,0.5225,0.5244,0.5206,0.5199,0.5163,0.5146,0.5175,0.5172,0.5068,0.5066,0.5065,0.5053,0,0,0,0,0,0,0.5366,0.5356,0.534,0.5313,0.5303,0.5249,0.5264,0.526,0.5244,0.5245,0.5218,0.5215,0.5206,0.5168,0.516,0.5142,0.517,0.507,0.5067,0.5065,0.5054,0.5051,0.5047,0,0,0,0,0,0.537,0.5339,0.5339,0.533,0.5283,0.5248,0.5242,0.5233,0.5243,0.5227,0.5214,0.5216,0.5149,0.5164,0.5156,0.5136,0.5071,0.5068,0.5065,0.5056,0.5051,0.5048,0,0,0,0,0,0,0.5364,0.5335,0.5335,0.5294,0.5274,0.5248,0.5228,0.5228,0.5204,0.5206,0.5196,0.519,0.5154,0.5142,0.5159,0.5098,0.5111,0.5107,0.5107,0.5102,0.5099,0.5102,0.5167,0,0,0,0,0,0.5358,0.5332,0.5308,0.5274,0.5264,0.5248,0.5233,0.5227,0.5206,0.5197,0.5181,0.516,0.5135,0.5118,0.5093,0.5053,0.5047,0.5036,0.5032,0.503,0.5026,0.5004,0.4999,0.5056,0.5056,0.5056,0,0,0.5345,0.5326,0.531,0.5273,0.5256,0.523,0.5241,0.5212,0.5193,0.5193,0.5157,0.5145,0.5121,0.5083,0.5066,0.5072,0.5009,0.5026,0.5024,0.5022,0.5001,0.4996,0.4991,0.5054,0.5054,0.5055,0,0,0.5308,0.5291,0.5261,0.5244,0.5219,0.5209,0.5202,0.5176,0.5168,0.5132,0.5132,0.5109,0.5066,0.5049,0.5035,0.4992,0.4993,0.4985,0.4966,0.4945,0.4941,0.4937,0.4922,0.4917,0.4981,0.4981,0.4981,0,0.5295,0.5255,0.5246,0.5217,0.5201,0.52,0.517,0.5155,0.5123,0.5112,0.5119,0.5065,0.5049,0.5007,0.4996,0.4985,0.4977,0.4987,0.4942,0.4938,0.4934,0.492,0.4914,0.498,0.498,0.4981,0.4981,0,0.524,0.5213,0.5192,0.5161,0.5142,0.5113,0.51,0.5083,0.508,0.5069,0.5034,0.5015,0.4986,0.4976,0.4973,0.4934,0.4939,0.4944,0.4958,0.4928,0.4914,0.4909,0.4979,0.4979,0.498,0.498,0,0,0.5197,0.5162,0.5154,0.5141,0.5113,0.5092,0.5063,0.5035,0.5021,0.4999,0.4975,0.4939,0.4944,0.4928,0.4923,0.4905,0.4873,0.4912,0.4912,0.4906,0.4829,0.4825,0.4819,0.4874,0.4873,0.4872,0.4831,0,0.5157,0.5105,0.5097,0.5052,0.5026,0.5026,0.5001,0.4982,0.4972,0.4949,0.4938,0.4912,0.4921,0.4911,0.4893,0.488,0.4857,0.4883,0.4851,0.485,0.4857,0.4812,0.4807,0.4769,0.4826,0.4825,0.4824,0,0.5103,0.5079,0.5032,0.5009,0.4998,0.4975,0.495,0.4928,0.4907,0.49,0.4883,0.488,0.4851,0.4867,0.4827,0.4845,0.4832,0.4824,0.4822,0.4818,0.4835,0.4806,0.4757,0.4752,0.4816,0.4817,0.4817,0,0.5076,0.5033,0.4999,0.4987,0.4959,0.4943,0.4931,0.4911,0.4895,0.4873,0.4863,0.4837,0.4824,0.4805,0.4796,0.4807,0.4757,0.4771,0.4751,0.4751,0.474,0.474,0.4687,0.4732,0.4732,0.4732,0.4732,0,0.5031,0.5002,0.4986,0.4965,0.4933,0.4924,0.4893,0.4881,0.4863,0.4841,0.4839,0.4818,0.4808,0.4785,0.4778,0.4747,0.474,0.4735,0.4733,0.4735,0.4735,0.4725,0.4728,0.4731,0.4731,0.4731,0.4731,0,0.4995,0.4983,0.4946,0.4923,0.4917,0.4894,0.4874,0.4854,0.4845,0.4816,0.4809,0.4794,0.4767,0.4757,0.4724,0.472,0.4683,0.4684,0.469,0.469,0.467,0.4672,0.4609,0.46,0.465,0.465,0.465,0,0.4967,0.4945,0.492,0.4904,0.4891,0.4866,0.485,0.4841,0.4825,0.4799,0.4783,0.4756,0.4735,0.4693,0.4679,0.4655,0.4654,0.4634,0.4651,0.4653,0.4654,0.4655,0.4653,0.4631,0.463,0.463,0.4629,0,0.492,0.4915,0.4891,0.4866,0.4847,0.4826,0.4807,0.4794,0.4783,0.4764,0.4737,0.472,0.4688,0.4662,0.4637,0.4625,0.4625,0.4624,0.4618,0.4619,0.4624,0.4621,0.4681,0.4626,0.4626,0.4626,0.4626,0.4627,0.4887,0.4867,0.4846,0.482,0.4804,0.4786,0.4766,0.4754,0.4731,0.4704,0.47,0.4671,0.4652,0.4618,0.4605,0.4583,0.4588,0.458,0.4578,0.4575,0.4574,0.4628,0.4579,0.4579,0.4579,0.4579,0.4579,0,0.4838,0.4825,0.4801,0.4774,0.4754,0.4756,0.4735,0.4718,0.4692,0.4674,0.4653,0.4622,0.4597,0.4582,0.4557,0.4542,0.4542,0.4536,0.4537,0.4534,0.4571,0.4578,0.4537,0.4537,0.4537,0.4537,0.4537,0.4537,0.4811,0.4778,0.4771,0.473,0.4718,0.4689,0.4676,0.466,0.4645,0.4611,0.459,0.458,0.4563,0.4537,0.4515,0.4511,0.4502,0.4496,0.4492,0.4527,0.4531,0.4535,0.4542,0.4494,0.4494,0.4457,0.4457,0.4457]}]]